Date,TemperatureHighF,TemperatureAvgF,TemperatureLowF,DewpointHighF,DewpointAvgF,DewpointLowF,HumidityHigh,HumidityAvg,HumidityLow,PressureMaxIn,PressureMinIn,WindSpeedMaxMPH,WindSpeedAvgMPH,GustSpeedMaxMPH,PrecipitationSumIn
2013-1-1,43,36,32,32,29,26,85,75,61,30.46,30.32,10,3,10,0.00
2013-1-2,47,40,34,33,26,18,80,60,37,30.31,30.16,10,2,10,0.00
2013-1-3,46,38,34,32,23,16,84,55,37,30.16,30.06,12,3,12,0.10
2013-1-4,50,44,38,41,39,35,90,82,70,30.27,30.13,11,5,11,0.00
2013-1-5,46,44,42,39,34,30,88,67,55,30.17,30.08,17,4,17,0.05
2013-1-6,46,43,41,39,37,35,86,79,68,30.15,29.96,15,6,16,0.00
2013-1-7,51,47,42,45,41,37,87,80,73,30.12,29.76,27,9,27,0.01
2013-1-8,53,48,42,48,43,37,91,83,75,30.13,29.70,32,9,32,0.30
2013-1-9,50,42,37,46,37,32,88,82,72,29.91,29.64,24,7,24,0.91
2013-1-10,39,37,35,34,31,23,85,79,58,30.08,29.91,11,4,11,0.26
2013-1-11,36,33,30,30,24,19,88,70,54,30.29,30.08,10,3,10,0.26
2013-1-12,39,32,28,28,24,20,88,73,53,30.40,30.28,11,3,11,0.26
2013-1-13,37,32,28,28,25,22,89,74,57,30.46,30.39,6,2,6,0.00
2013-1-14,38,35,33,32,27,23,80,71,62,30.53,30.43,7,3,7,0.00
2013-1-15,43,38,35,32,29,28,80,70,57,30.66,30.53,9,3,10,0.00
2013-1-16,43,36,31,33,30,28,90,77,59,30.64,30.48,11,3,11,0.00
2013-1-17,39,35,31,34,32,27,90,86,79,30.48,30.26,8,2,8,0.00
2013-1-18,38,35,33,35,32,30,91,89,85,30.31,30.23,14,3,14,0.00
2013-1-19,36,34,32,33,31,30,91,88,82,30.35,30.30,8,3,8,0.00
2013-1-20,44,36,32,35,33,30,91,86,70,30.36,30.23,8,3,8,0.00
2013-1-21,38,35,32,34,32,29,91,88,81,30.24,30.11,7,3,7,0.00
2013-1-22,41,36,31,35,32,29,91,84,75,30.11,29.87,8,2,8,0.00
2013-1-23,44,42,39,39,34,26,88,74,49,30.10,29.82,13,4,16,0.16
2013-1-24,46,43,41,40,37,32,89,79,59,30.17,30.02,13,4,13,0.08
2013-1-25,51,46,43,42,40,36,90,79,64,30.03,29.89,18,5,18,0.01
2013-1-26,45,43,41,38,37,35,86,79,72,30.00,29.85,20,7,20,0.12
2013-1-27,42,41,40,37,36,34,86,81,77,30.03,29.96,17,7,17,0.01
2013-1-28,43,42,40,39,37,35,88,85,80,30.06,29.97,11,4,11,0.12
2013-1-29,48,45,42,44,41,39,89,86,80,30.31,30.06,17,5,17,0.18
2013-1-30,48,47,44,46,44,42,92,91,89,30.35,30.29,11,4,11,0.02
2013-1-31,50,47,46,45,43,41,92,86,73,30.36,30.26,21,5,21,0.03